{"data":{"norad_id":67903,"epoch":"2026-05-25T01:55:48.601632Z","epoch_age_seconds":61891,"freshness":"FRESH","line1":"1 67903U 26035AA  26145.08042363  .00016459  00000+0  51079-3 0  9994","line2":"2 67903  97.2852  78.5848 0003212  97.8663 262.2944 15.33456499 15696","mean_motion":15.33456499,"eccentricity":0.0003212,"inclination_deg":97.2852,"raan_deg":78.5848,"arg_perigee_deg":97.8663,"mean_anomaly_deg":262.2944,"bstar":0.00051079,"rev_number":1569,"period_min":93.905500478106,"perigee_km":463.31078267524,"apogee_km":467.70714084108,"semimajor_km":6843.6459617582,"source":"CELESTRAK","updated_at":"2026-05-25T13:38:21.736935Z"}}